Kalaheo, HI

1:14 AM HST on February 01, 2015 (GMT -1000)
Kalaeloa (John Rodgers Field) | Change Station
CLOSE
Current Station
Airport
Location: Kalaeloa,
Elevation: 49 ft
Nearby Weather Stations
Active Advisory: High Surf Advisory

Elev 49 ft 21.31 °N, 158.07 °W | Updated 21 minutes ago

Mostly Cloudy
Mostly Cloudy
71 °F
Feels Like 71 °F
N
4
Wind Variable Wind from Variable

Today
High -- | Low -- °F
--% Chance of Precip.
Yesterday
High -- | Low -- °F
Precip. -- in
7:16 AM 6:27 PM
Waxing Gibbous, 94% visible
Pressure 30.06 in
Visibility 10.0 miles
Clouds Mostly Cloudy 5000 ft
Mostly Cloudy 6000 ft
Dew Point 62 °F
Humidity 73%
Rainfall 0.00 in
Snow Depth Not available.
UV 0 out of 12
Pollen Not available.
Air Quality Not available.
Flu Activity Not available.
METAR PHJR 011053Z AUTO VRB03KT 10SM BKN050 BKN060 22/17 A3004 RMK AO2 SLP177 T02170167 TSNO

More Conditions Fewer Conditions

Pressure 30.06 in
Visibility 10.0 miles
Clouds Mostly Cloudy 5000 ft
Mostly Cloudy 6000 ft
Dew Point 62 °F
Humidity 73%
Rainfall 0.00 in
Snow Depth Not available.
UV 0 out of 12
Pollen Not available.
Air Quality Not available.
Flu Activity Not available.
METAR PHJR 011053Z AUTO VRB03KT 10SM BKN050 BKN060 22/17 A3004 RMK AO2 SLP177 T02170167 TSNO

More Conditions Fewer Conditions

10-Day Weather Forecast

Almanac

Astronomy

Feb. 01, 2015 Rise Set
Actual Time
Civil Twilight
Nautical Twilight
Astronomical Twilight
Moon
Length of Visible Light
Length of Day
Tomorrow will be .
, % of the Moon is Illuminated

Today's Extremes

State Highs State Lows

Community

WunderPhotos

Upload Photos

1,792,345 photos uploaded!

WunderBlogs® & News

Nearby

Air Quality

  Air Quality AQ Index Pollutant
Not available.

Snow Depth

Station Depth Elevation

Earthquake Activity

City Distance Mag. Time & Date
Minimum magnitude displayed is 2.5.

Coastal Water Temperatures

Place Temperature

Nearby Weather Stations